<?xml version='1.0' encoding='UTF-8'?>
<gpx version="1.1" creator="https://www.komoot.de" xmlns="http://www.topografix.com/GPX/1/1" xmlns:xsi="http://www.w3.org/2001/XMLSchema-instance" xsi:schemaLocation="http://www.topografix.com/GPX/1/1 http://www.topografix.com/GPX/1/1/gpx.xsd">
  <metadata>
    <name>Dondena -Lago Miserin</name>
    <author>
      <link href="https://www.komoot.de">
        <text>komoot</text>
        <type>text/html</type>
      </link>
    </author>
  </metadata>
  <trk>
    <name>Dondena -Lago Miserin</name>
    <trkseg>
      <trkpt lat="45.616481" lon="7.555677">
        <ele>2100.466579</ele>
        <time>2022-11-14T08:59:29.939Z</time>
      </trkpt>
      <trkpt lat="45.616417" lon="7.555386">
        <ele>2100.466579</ele>
        <time>2022-11-14T08:59:55.271Z</time>
      </trkpt>
      <trkpt lat="45.616563" lon="7.555075">
        <ele>2100.466579</ele>
        <time>2022-11-14T09:00:24.684Z</time>
      </trkpt>
      <trkpt lat="45.616641" lon="7.554570">
        <ele>2100.466579</ele>
        <time>2022-11-14T09:01:07.566Z</time>
      </trkpt>
      <trkpt lat="45.616613" lon="7.554341">
        <ele>2101.491293</ele>
        <time>2022-11-14T09:01:27.723Z</time>
      </trkpt>
      <trkpt lat="45.616580" lon="7.554304">
        <ele>2101.919453</ele>
        <time>2022-11-14T09:01:32.683Z</time>
      </trkpt>
      <trkpt lat="45.616530" lon="7.554264">
        <ele>2102.504409</ele>
        <time>2022-11-14T09:01:39.509Z</time>
      </trkpt>
      <trkpt lat="45.616398" lon="7.554114">
        <ele>2104.225901</ele>
        <time>2022-11-14T09:02:01.799Z</time>
      </trkpt>
      <trkpt lat="45.616324" lon="7.553847">
        <ele>2106.276796</ele>
        <time>2022-11-14T09:02:26.036Z</time>
      </trkpt>
      <trkpt lat="45.616112" lon="7.553967">
        <ele>2108.604664</ele>
        <time>2022-11-14T09:03:02.030Z</time>
      </trkpt>
      <trkpt lat="45.616054" lon="7.553694">
        <ele>2110.642136</ele>
        <time>2022-11-14T09:03:28.343Z</time>
      </trkpt>
      <trkpt lat="45.615654" lon="7.553316">
        <ele>2115.537414</ele>
        <time>2022-11-14T09:04:36.200Z</time>
      </trkpt>
      <trkpt lat="45.615451" lon="7.553060">
        <ele>2118.301006</ele>
        <time>2022-11-14T09:05:13.147Z</time>
      </trkpt>
      <trkpt lat="45.615176" lon="7.553078">
        <ele>2122.697029</ele>
        <time>2022-11-14T09:05:52.026Z</time>
      </trkpt>
      <trkpt lat="45.615130" lon="7.553144">
        <ele>2123.824699</ele>
        <time>2022-11-14T09:06:03.203Z</time>
      </trkpt>
      <trkpt lat="45.614934" lon="7.553202">
        <ele>2127.288035</ele>
        <time>2022-11-14T09:06:45.809Z</time>
      </trkpt>
      <trkpt lat="45.614783" lon="7.553137">
        <ele>2130.016703</ele>
        <time>2022-11-14T09:07:17.577Z</time>
      </trkpt>
      <trkpt lat="45.614150" lon="7.553077">
        <ele>2140.993738</ele>
        <time>2022-11-14T09:09:43.082Z</time>
      </trkpt>
      <trkpt lat="45.613871" lon="7.552857">
        <ele>2146.507013</ele>
        <time>2022-11-14T09:11:04.389Z</time>
      </trkpt>
      <trkpt lat="45.613475" lon="7.552784">
        <ele>2153.584683</ele>
        <time>2022-11-14T09:12:50.810Z</time>
      </trkpt>
      <trkpt lat="45.612877" lon="7.552337">
        <ele>2165.830299</ele>
        <time>2022-11-14T09:15:30.375Z</time>
      </trkpt>
      <trkpt lat="45.612310" lon="7.552127">
        <ele>2176.459193</ele>
        <time>2022-11-14T09:17:45.971Z</time>
      </trkpt>
      <trkpt lat="45.612111" lon="7.551797">
        <ele>2181.989852</ele>
        <time>2022-11-14T09:18:37.500Z</time>
      </trkpt>
      <trkpt lat="45.612235" lon="7.551671">
        <ele>2183.883786</ele>
        <time>2022-11-14T09:19:00.772Z</time>
      </trkpt>
      <trkpt lat="45.612055" lon="7.551136">
        <ele>2188.394104</ele>
        <time>2022-11-14T09:20:02.787Z</time>
      </trkpt>
      <trkpt lat="45.612106" lon="7.551103">
        <ele>2189.002113</ele>
        <time>2022-11-14T09:20:11.003Z</time>
      </trkpt>
      <trkpt lat="45.612321" lon="7.551315">
        <ele>2191.838825</ele>
        <time>2022-11-14T09:20:47.038Z</time>
      </trkpt>
      <trkpt lat="45.612553" lon="7.551282">
        <ele>2194.371017</ele>
        <time>2022-11-14T09:21:17.840Z</time>
      </trkpt>
      <trkpt lat="45.612751" lon="7.550995">
        <ele>2197.433506</ele>
        <time>2022-11-14T09:21:52.745Z</time>
      </trkpt>
      <trkpt lat="45.612908" lon="7.550544">
        <ele>2201.260741</ele>
        <time>2022-11-14T09:22:36.487Z</time>
      </trkpt>
      <trkpt lat="45.613025" lon="7.549215">
        <ele>2211.724745</ele>
        <time>2022-11-14T09:24:42.543Z</time>
      </trkpt>
      <trkpt lat="45.613327" lon="7.548225">
        <ele>2220.183555</ele>
        <time>2022-11-14T09:26:35.106Z</time>
      </trkpt>
      <trkpt lat="45.613524" lon="7.547655">
        <ele>2225.081500</ele>
        <time>2022-11-14T09:27:41.197Z</time>
      </trkpt>
      <trkpt lat="45.613812" lon="7.546539">
        <ele>2234.135979</ele>
        <time>2022-11-14T09:29:34.640Z</time>
      </trkpt>
      <trkpt lat="45.613872" lon="7.546010">
        <ele>2238.215217</ele>
        <time>2022-11-14T09:30:24.063Z</time>
      </trkpt>
      <trkpt lat="45.613877" lon="7.545426">
        <ele>2242.815880</ele>
        <time>2022-11-14T09:31:18.289Z</time>
      </trkpt>
      <trkpt lat="45.613941" lon="7.545023">
        <ele>2246.554070</ele>
        <time>2022-11-14T09:31:57.112Z</time>
      </trkpt>
      <trkpt lat="45.614126" lon="7.544716">
        <ele>2250.219507</ele>
        <time>2022-11-14T09:32:35.703Z</time>
      </trkpt>
      <trkpt lat="45.614387" lon="7.544428">
        <ele>2254.483176</ele>
        <time>2022-11-14T09:33:22.910Z</time>
      </trkpt>
      <trkpt lat="45.614694" lon="7.544142">
        <ele>2259.221776</ele>
        <time>2022-11-14T09:34:18.855Z</time>
      </trkpt>
      <trkpt lat="45.614834" lon="7.543905">
        <ele>2262.027778</ele>
        <time>2022-11-14T09:34:53.951Z</time>
      </trkpt>
      <trkpt lat="45.614798" lon="7.542825">
        <ele>2274.356751</ele>
        <time>2022-11-14T09:37:09.485Z</time>
      </trkpt>
      <trkpt lat="45.614616" lon="7.541277">
        <ele>2293.948630</ele>
        <time>2022-11-14T09:40:42.308Z</time>
      </trkpt>
      <trkpt lat="45.614151" lon="7.539177">
        <ele>2315.630550</ele>
        <time>2022-11-14T09:44:52.407Z</time>
      </trkpt>
      <trkpt lat="45.614202" lon="7.538886">
        <ele>2318.477662</ele>
        <time>2022-11-14T09:45:20.555Z</time>
      </trkpt>
      <trkpt lat="45.614188" lon="7.538428">
        <ele>2322.173673</ele>
        <time>2022-11-14T09:46:02.717Z</time>
      </trkpt>
      <trkpt lat="45.614021" lon="7.538071">
        <ele>2324.085037</ele>
        <time>2022-11-14T09:46:41.215Z</time>
      </trkpt>
      <trkpt lat="45.613979" lon="7.537362">
        <ele>2327.251720</ele>
        <time>2022-11-14T09:47:42.016Z</time>
      </trkpt>
      <trkpt lat="45.613760" lon="7.536658">
        <ele>2330.680727</ele>
        <time>2022-11-14T09:48:45.186Z</time>
      </trkpt>
      <trkpt lat="45.613752" lon="7.536589">
        <ele>2330.992001</ele>
        <time>2022-11-14T09:48:50.861Z</time>
      </trkpt>
      <trkpt lat="45.613896" lon="7.536357">
        <ele>2332.372399</ele>
        <time>2022-11-14T09:49:15.647Z</time>
      </trkpt>
      <trkpt lat="45.613903" lon="7.536136">
        <ele>2333.287987</ele>
        <time>2022-11-14T09:49:33.663Z</time>
      </trkpt>
      <trkpt lat="45.613760" lon="7.535700">
        <ele>2334.965782</ele>
        <time>2022-11-14T09:50:12.062Z</time>
      </trkpt>
      <trkpt lat="45.613261" lon="7.535290">
        <ele>2337.832566</ele>
        <time>2022-11-14T09:51:19.199Z</time>
      </trkpt>
      <trkpt lat="45.612611" lon="7.533639">
        <ele>2346.179976</ele>
        <time>2022-11-14T09:53:56.227Z</time>
      </trkpt>
      <trkpt lat="45.612609" lon="7.533408">
        <ele>2347.562148</ele>
        <time>2022-11-14T09:54:16.856Z</time>
      </trkpt>
      <trkpt lat="45.612563" lon="7.532747">
        <ele>2351.536413</ele>
        <time>2022-11-14T09:55:15.365Z</time>
      </trkpt>
      <trkpt lat="45.612258" lon="7.532171">
        <ele>2355.858640</ele>
        <time>2022-11-14T09:56:24.680Z</time>
      </trkpt>
      <trkpt lat="45.612202" lon="7.531951">
        <ele>2357.259341</ele>
        <time>2022-11-14T09:56:50.733Z</time>
      </trkpt>
      <trkpt lat="45.612158" lon="7.531624">
        <ele>2359.959228</ele>
        <time>2022-11-14T09:57:23.049Z</time>
      </trkpt>
      <trkpt lat="45.611887" lon="7.531333">
        <ele>2363.955510</ele>
        <time>2022-11-14T09:58:10.363Z</time>
      </trkpt>
      <trkpt lat="45.611432" lon="7.530818">
        <ele>2370.798244</ele>
        <time>2022-11-14T09:59:32.950Z</time>
      </trkpt>
      <trkpt lat="45.611238" lon="7.530362">
        <ele>2375.200228</ele>
        <time>2022-11-14T10:00:26.858Z</time>
      </trkpt>
      <trkpt lat="45.611197" lon="7.530356">
        <ele>2375.686173</ele>
        <time>2022-11-14T10:00:32.551Z</time>
      </trkpt>
      <trkpt lat="45.611080" lon="7.530582">
        <ele>2378.005144</ele>
        <time>2022-11-14T10:01:00.915Z</time>
      </trkpt>
      <trkpt lat="45.611016" lon="7.530620">
        <ele>2378.780902</ele>
        <time>2022-11-14T10:01:11.604Z</time>
      </trkpt>
      <trkpt lat="45.610763" lon="7.530575">
        <ele>2381.252671</ele>
        <time>2022-11-14T10:01:47.721Z</time>
      </trkpt>
      <trkpt lat="45.610191" lon="7.529648">
        <ele>2389.635938</ele>
        <time>2022-11-14T10:03:42.715Z</time>
      </trkpt>
      <trkpt lat="45.609237" lon="7.527596">
        <ele>2405.350615</ele>
        <time>2022-11-14T10:07:22.687Z</time>
      </trkpt>
      <trkpt lat="45.609258" lon="7.527423">
        <ele>2406.426587</ele>
        <time>2022-11-14T10:07:38.648Z</time>
      </trkpt>
      <trkpt lat="45.609400" lon="7.527153">
        <ele>2408.496552</ele>
        <time>2022-11-14T10:08:08.996Z</time>
      </trkpt>
      <trkpt lat="45.609681" lon="7.527057">
        <ele>2411.027382</ele>
        <time>2022-11-14T10:08:46.810Z</time>
      </trkpt>
      <trkpt lat="45.609581" lon="7.526744">
        <ele>2413.620080</ele>
        <time>2022-11-14T10:09:19.248Z</time>
      </trkpt>
      <trkpt lat="45.609535" lon="7.526412">
        <ele>2416.436366</ele>
        <time>2022-11-14T10:09:51.506Z</time>
      </trkpt>
      <trkpt lat="45.609054" lon="7.525520">
        <ele>2425.808102</ele>
        <time>2022-11-14T10:11:46.744Z</time>
      </trkpt>
      <trkpt lat="45.607926" lon="7.524204">
        <ele>2443.977991</ele>
        <time>2022-11-14T10:15:22.505Z</time>
      </trkpt>
      <trkpt lat="45.607688" lon="7.523958">
        <ele>2447.770314</ele>
        <time>2022-11-14T10:16:05.768Z</time>
      </trkpt>
      <trkpt lat="45.607368" lon="7.523367">
        <ele>2454.521029</ele>
        <time>2022-11-14T10:17:22.784Z</time>
      </trkpt>
      <trkpt lat="45.607162" lon="7.523106">
        <ele>2458.375717</ele>
        <time>2022-11-14T10:18:04.384Z</time>
      </trkpt>
      <trkpt lat="45.606853" lon="7.522986">
        <ele>2463.252616</ele>
        <time>2022-11-14T10:18:55.832Z</time>
      </trkpt>
      <trkpt lat="45.606764" lon="7.523036">
        <ele>2464.709088</ele>
        <time>2022-11-14T10:19:13.190Z</time>
      </trkpt>
      <trkpt lat="45.606119" lon="7.522827">
        <ele>2474.782174</ele>
        <time>2022-11-14T10:21:23.353Z</time>
      </trkpt>
      <trkpt lat="45.605962" lon="7.522606">
        <ele>2478.138230</ele>
        <time>2022-11-14T10:22:09.746Z</time>
      </trkpt>
      <trkpt lat="45.605378" lon="7.522842">
        <ele>2489.148543</ele>
        <time>2022-11-14T10:24:22.936Z</time>
      </trkpt>
      <trkpt lat="45.605087" lon="7.522778">
        <ele>2495.843597</ele>
        <time>2022-11-14T10:25:32.656Z</time>
      </trkpt>
      <trkpt lat="45.604872" lon="7.522882">
        <ele>2501.004945</ele>
        <time>2022-11-14T10:26:37.860Z</time>
      </trkpt>
      <trkpt lat="45.604678" lon="7.522741">
        <ele>2505.953937</ele>
        <time>2022-11-14T10:27:44.380Z</time>
      </trkpt>
      <trkpt lat="45.604592" lon="7.522495">
        <ele>2510.328873</ele>
        <time>2022-11-14T10:28:38.870Z</time>
      </trkpt>
      <trkpt lat="45.604228" lon="7.522065">
        <ele>2521.066998</ele>
        <time>2022-11-14T10:30:54.549Z</time>
      </trkpt>
      <trkpt lat="45.604078" lon="7.521700">
        <ele>2527.481674</ele>
        <time>2022-11-14T10:32:13.208Z</time>
      </trkpt>
      <trkpt lat="45.604272" lon="7.521384">
        <ele>2533.480961</ele>
        <time>2022-11-14T10:33:31.035Z</time>
      </trkpt>
      <trkpt lat="45.604075" lon="7.521270">
        <ele>2537.815956</ele>
        <time>2022-11-14T10:34:30.701Z</time>
      </trkpt>
      <trkpt lat="45.604038" lon="7.520623">
        <ele>2547.079384</ele>
        <time>2022-11-14T10:36:26.024Z</time>
      </trkpt>
      <trkpt lat="45.603876" lon="7.520645">
        <ele>2550.398558</ele>
        <time>2022-11-14T10:37:10.427Z</time>
      </trkpt>
      <trkpt lat="45.603162" lon="7.520445">
        <ele>2561.384477</ele>
        <time>2022-11-14T10:39:57.826Z</time>
      </trkpt>
      <trkpt lat="45.603042" lon="7.520520">
        <ele>2561.384477</ele>
        <time>2022-11-14T10:40:18.500Z</time>
      </trkpt>
      <trkpt lat="45.603109" lon="7.520660">
        <ele>2561.384477</ele>
        <time>2022-11-14T10:40:36.596Z</time>
      </trkpt>
      <trkpt lat="45.602762" lon="7.520835">
        <ele>2561.384477</ele>
        <time>2022-11-14T10:41:31.679Z</time>
      </trkpt>
      <trkpt lat="45.602512" lon="7.521262">
        <ele>2561.384477</ele>
        <time>2022-11-14T10:42:26.951Z</time>
      </trkpt>
      <trkpt lat="45.602336" lon="7.520989">
        <ele>2561.384477</ele>
        <time>2022-11-14T10:43:00.885Z</time>
      </trkpt>
      <trkpt lat="45.602153" lon="7.520893">
        <ele>2561.384477</ele>
        <time>2022-11-14T10:43:26.201Z</time>
      </trkpt>
      <trkpt lat="45.602051" lon="7.520830">
        <ele>2561.384477</ele>
        <time>2022-11-14T10:43:37.397Z</time>
      </trkpt>
      <trkpt lat="45.602017" lon="7.520760">
        <ele>2561.384477</ele>
        <time>2022-11-14T10:43:43.411Z</time>
      </trkpt>
    </trkseg>
  </trk>
</gpx>